Weather History for Greenville Downtown, SC

Change the Weather History Date:

Sunday, February 10, 2013

  Actual Average Record
Temperature  
Mean Temperature 49 °F -  
Max Temperature 57 °F 52 °F 68 °F (1999)
Min Temperature 41 °F 35 °F 26 °F (2006)
Degree Days  
Heating Degree Days 16    
Moisture  
Dew Point 33 °F    
Average Humidity 60    
Maximum Humidity 93    
Minimum Humidity 30    
Precipitation  
Precipitation 0.40 in - - ()
Sea Level Pressure  
Sea Level Pressure 30.30 in    
Wind  
Wind Speed 6 mph (ENE)    
Max Wind Speed 10 mph    
Max Gust Speed 16 mph    
Visibility 9 miles    
Events Rain    
Averages and records for this station are not official NWS values.
T = Trace of Precipitation, MM = Missing Value Source: NWS Daily Summary

Daily Weather History Graph

Daily Weather History Graph

Search for Another Location

Airport:

Trip Planner

Search our weather history database for the weather conditions in past years. The results will help you decide how hot, cold, wet, or windy it might be!

Date:

Astronomy

Feb. 10, 2013 Rise Set
Actual Time 7:19 AM EST 6:07 PM EST
Civil Twilight 6:53 AM EST 6:33 PM EST
Nautical Twilight 6:24 AM EST 7:03 PM EST
Astronomical Twilight 5:54 AM EST 7:33 PM EST
Moon 7:11 AM EST (2/10) 6:52 PM EST (2/10)
Length of Visible Light 11h 39m
Length of Day
10h 47m
New Moon, 0% of the Moon is Illuminated
Feb 10
New Moon
Feb 17
First Quarter
Feb 25
Full
Mar 4
Last Quarter
Mar 11
New

Hourly Weather History & Observations

Time (EST) Temp. Windchill Dew Point Humidity Pressure Visibility Wind Dir Wind Speed Gust Speed Precip Events Conditions
12:53 AM 46.0 °F 43.1 °F 21.0 °F 37% 30.32 in 10.0 mi East 5.8 mph - N/A   Clear
1:53 AM 45.0 °F 42.6 °F 21.0 °F 39% 30.33 in 10.0 mi ENE 4.6 mph - N/A   Clear
2:53 AM 45.0 °F 42.6 °F 21.9 °F 40% 30.33 in 10.0 mi ENE 4.6 mph - N/A   Clear
3:53 AM 41.0 °F 37.1 °F 24.1 °F 51% 30.34 in 10.0 mi NE 5.8 mph - N/A   Clear
4:53 AM 43.0 °F 40.3 °F 21.9 °F 43% 30.33 in 10.0 mi NE 4.6 mph - N/A   Clear
5:53 AM 42.1 °F 40.2 °F 24.1 °F 49% 30.38 in 10.0 mi NNE 3.5 mph - N/A   Clear
6:53 AM 43.0 °F 39.5 °F 21.9 °F 43% 30.38 in 10.0 mi NNE 5.8 mph - N/A   Clear
7:53 AM 42.1 °F 38.4 °F 21.0 °F 43% 30.40 in 10.0 mi NE 5.8 mph - N/A   Clear
8:53 AM 44.1 °F 39.0 °F 21.0 °F 40% 30.39 in 10.0 mi ENE 9.2 mph - N/A   Clear
9:53 AM 46.0 °F 41.9 °F 25.0 °F 44% 30.42 in 10.0 mi East 8.1 mph - N/A   Clear
10:53 AM 48.0 °F - 27.0 °F 44% 30.42 in 10.0 mi East 6.9 mph - N/A   Clear
11:53 AM 52.0 °F - 26.1 °F 37% 30.40 in 10.0 mi SSE 4.6 mph - N/A   Clear
12:53 PM 55.0 °F - 24.1 °F 30% 30.34 in 10.0 mi East 6.9 mph - N/A   Clear
1:53 PM 57.0 °F - 27.0 °F 32% 30.27 in 10.0 mi East 9.2 mph - N/A   Partly Cloudy
2:53 PM 57.0 °F - 33.1 °F 40% 30.27 in 10.0 mi SE 9.2 mph 16.1 mph N/A   Scattered Clouds
3:53 PM 57.0 °F - 35.1 °F 44% 30.26 in 10.0 mi South 9.2 mph - N/A   Clear
4:53 PM 55.9 °F - 36.0 °F 47% 30.22 in 10.0 mi ESE 9.2 mph - N/A   Clear
5:53 PM 54.0 °F - 39.0 °F 57% 30.22 in 10.0 mi East 6.9 mph - 0.00 in Rain Light Rain
6:53 PM 48.9 °F - 43.0 °F 80% 30.24 in 6.0 mi North 8.1 mph - 0.05 in Rain Rain
7:53 PM 48.0 °F - 45.0 °F 89% 30.25 in 6.0 mi North 6.9 mph - 0.14 in Rain Rain
8:48 PM 46.4 °F 41.9 °F 44.6 °F 93% 30.27 in 6.0 mi North 9.2 mph - 0.11 in Rain Rain
8:53 PM 46.9 °F - 44.1 °F 90% 30.28 in 6.0 mi North 10.4 mph - 0.11 in Rain Rain
9:34 PM 46.4 °F 42.9 °F 42.8 °F 87% 30.25 in 8.0 mi NE 6.9 mph - 0.05 in Rain Light Rain
9:53 PM 46.0 °F 42.5 °F 43.0 °F 89% 30.25 in 10.0 mi NE 6.9 mph - 0.05 in Rain Light Rain
10:18 PM 46.4 °F - 42.8 °F 87% 30.23 in 10.0 mi Calm Calm - 0.01 in Rain Light Rain
10:31 PM 46.4 °F 44.3 °F 42.8 °F 87% 30.23 in 10.0 mi North 4.6 mph - 0.01 in Rain Light Rain
10:41 PM 44.6 °F 42.2 °F 42.8 °F 93% 30.24 in 9.0 mi North 4.6 mph - 0.01 in Rain Light Rain
10:53 PM 45.0 °F 41.8 °F 43.0 °F 93% 30.23 in 7.0 mi NNE 5.8 mph - 0.02 in Rain Light Rain
11:53 PM 45.0 °F 41.8 °F 43.0 °F 93% 30.17 in 9.0 mi Variable 5.8 mph - 0.03 in Rain Light Rain